Cloud_Cover
100 100 14 13 5 5 5 2 0 0 2 5 2 4 0 0 0 0 0 0 5 5 5 9 85 92 100 100 100 100 100 100 100 100 100 100 99 100
100 100 58 6 5 5 5 0 0 0 0 0 0 0 0 0 2 0 0 1 1 5 5 60 74 100 100 100 100 100 100 100 100 100 100 100 100 100
100 89 62 5 5 5 3 0 0 0 0 0 0 1 5 5 1 5 0 0 5 5 36 100 100 100 100 100 100 100 100 100 100 100 100 100 100 100
100 60 6 5 5 5 4 0 0 0 0 5 5 5 5 5 1 5 5 5 2 4 91 100 98 100 100 100 100 100 100 100 100 100 100 100 100 100
100 83 35 5 5 5 3 0 0 0 3 5 5 5 2 3 5 5 5 5 5 4 5 5 10 41 92 100 100 100 100 100 100 100 100 100 100 100
100 100 67 9 5 3 0 0 4 5 5 5 5 19 92 81 22 44 8 5 5 1 0 5 78 5 5 5 6 44 100 100 100 100 100 100 100 100
100 100 59 5 4 2 5 5 35 88 17 90 94 100 100 95 81 40 28 5 3 5 58 5 5 5 5 4 5 5 98 100 100 100 100 100 100 100
100 100 11 5 5 2 5 51 86 97 100 100 89 100 80 59 100 92 5 5 79 37 82 5 5 5 5 5 5 79 99 100 100 100 100 100 100 100
100 98 64 7 4 1 5 63 43 52 73 100 100 81 67 51 100 7 17 100 100 51 92 56 5 5 5 5 8 49 89 98 99 100 100 100 100 100
100 66 6 5 4 25 19 96 92 10 5 64 100 97 100 75 100 100 100 95 30 26 87 99 5 12 5 5 5 5 86 100 100 97 100 100 100 100
90 16 5 2 5 85 96 58 5 5 5 5 44 99 100 100 100 100 61 100 98 97 94 100 11 49 70 5 2 5 96 100 83 83 97 100 100 100
5 1 4 21 72 99 100 100 96 52 5 27 5 5 5 5 15 43 90 100 100 100 5 100 87 95 100 5 5 22 62 99 51 5 69 71 100 100
5 5 5 15 98 100 100 93 61 100 83 7 5 5 5 5 5 11 88 100 100 98 73 100 100 97 100 82 14 5 41 59 18 5 5 18 10 100
5 45 5 82 100 87 78 44 94 100 16 5 5 5 24 5 5 42 39 38 66 95 79 100 99 99 100 98 98 8 69 21 5 27 99 60 13 99
6 52 99 86 11 27 5 69 85 5 5 35 71 94 79 60 81 96 8 62 69 99 97 98 100 99 100 100 100 74 92 99 43 100 98 95 100 100
10 82 54 5 5 4 4 5 5 5 81 80 58 83 96 100 100 95 100 100 100 73 100 92 94 100 100 96 100 92 94 100 91 51 82 100 87 100
100 8 1 5 4 5 5 5 5 6 71 73 100 100 92 100 94 87 100 100 100 100 70 25 97 79 48 94 99 75 100 100 99 60 62 100 57 99
53 5 5 5 5 5 5 5 5 60 93 99 100 100 100 100 99 96 97 100 100 95 100 88 78 92 28 56 100 100 100 98 32 77 100 100 100 100
5 5 5 5 5 5 5 58 99 98 100 100 100 100 100 100 100 100 100 100 96 98 78 97 100 100 100 100 100 100 100 73 89 100 100 100 100 100
5 5 5 17 64 77 99 100 100 100 100 100 100 100 100 100 96 100 100 100 100 90 89 46 98 100 100 100 100 93 100 96 100 97 74 100 100 100
5 5 32 74 83 100 100 100 100 100 100 100 99 100 100 100 89 98 100 95 100 99 97 98 100 94 100 85 100 60 100 100 100 100 100 100 100 100
5 5 58 90 99 100 99 100 100 100 100 100 100 100 100 100 100 100 100 100 96 100 100 99 95 72 85 100 100 100 100 84 100 100 100 100 100 100
5 39 92 99 99 99 100 100 100 100 100 100 100 100 100 100 100 100 100 100 100 100 100 85 100 100 100 100 100 100 93 31 100 90 100 100 100 100